Location: Bon Acre
(42.6442°N, 73.5758°W)
Time: 02:25:18
(UTC+00:00)

Cosmos 1655 Rocket - Pass Details

Date: 14 December 2025
Orbit: 970 x 1006 km, 83.0° (Epoch: 24 January)

Event Time Altitude Azimuth Distance (km) Brightness Sun altitude
Rises 22:02:22 0° 356° (N) 3,680 6.8 -7.5°
Reaches altitude 10° 22:04:58 10° 2° (N) 2,726 6.1 -7.9°
Maximum altitude 22:11:02 52° 78° (ENE) 1,199 4.1 -8.9°
Drops below altitude 10° 22:17:03 10° 154° (SSE) 2,705 6.3 -10.0°
Sets 22:19:37 0° 159° (SSE) 3,650 7.0 -10.4°
